Regional Weather Roundup
Issued by NWS

Home | Current Version | Previous Version | Graphics & Text | Print | Product List | Glossary On
Versions: 1 2 3 4 5 6 7 8 9 10 11 12 13 14 15 16 17 18 19 20 21 22 23 24 25 26 27 28 29 30 31 32 33 34 35 36 37 38 39 40 41 42 43 44 45 46 47 48 49 50
000
ASUS43 KDMX 301904
RWRIA

WEATHER ROUNDUP FOR IOWA
NATIONAL WEATHER SERVICE DES MOINES IA
  ISSUED BY NWS QUAD CITIES IA IL
100 PM CST FRI JAN 30 2015

NOTE: "FAIR" INDICATES FEW OR NO CLOUDS BELOW 12,000 FEET WITH NO
SIGNIFICANT WEATHER AND/OR OBSTRUCTIONS TO VISIBILITY.

* - THESE STATIONS ARE NOT NWS STATIONS...THUS NOT UNDER NWS
QUALITY CONTROL.  THEY ALSO DO NOT REPORT WEATHER SUCH
AS PRECIPITATION OR FOG.

IAZ001>003-012>014-020>022-031>034-043>046-302000-
   NORTHWEST IOWA

CITY           SKY/WX    TMP DP  RH WIND       PRES   REMARKS
CARROLL *      MOSUNNY   30  19  64 S14       30.42F WCI  20
DENNISON *     SUNNY     32  21  64 S10       30.40F WCI  24
LE MARS *      FAIR      32  23  69 S14G20    30.38F WCI  22
ORANGE CITY *  SUNNY     30  23  74 S14       30.34F WCI  20
SIOUX CITY     MOSUNNY   35  25  66 S14       30.39F WCI  26
SPENCER        SUNNY     30  20  66 S13       30.39F WCI  20
$$

IAZ055>058-069>071-079>083-090>094-302000-
   SOUTHWEST IOWA

CITY           SKY/WX    TMP DP  RH WIND       PRES   REMARKS
ATLANTIC *     SUNNY     32  18  55 S8        30.44F WCI  25
AUDUBON *      SUNNY     32  19  59 SW9       30.44F WCI  24
CLARINDA *     SUNNY     34  19  55 VRB6G12   30.50F WCI  29
COUNCIL BLFS * SUNNY     32  21  64 SW8       30.43F WCI  25
CRESTON *      SUNNY     30  14  51 S7        30.46F WCI  23
HARLAN *       SUNNY     32  21  64 S10       30.47F WCI  24
LAMONI         SUNNY     31  14  49 SW5       30.47F WCI  26
RED OAK *      SUNNY     34  18  51 S8        30.47F WCI  27
$$

IAZ047>049-059>061-072>074-084-302000-
   CENTRAL IOWA

CITY           SKY/WX    TMP DP  RH WIND       PRES   REMARKS
AMES           SUNNY     28  15  58 S7        30.47F WCI  21
ANKENY *       SUNNY     30  12  47 SW6       30.48F WCI  24
BOONE *        SUNNY     28  14  54 S7        30.43F WCI  21
CHARITON *     SUNNY     30  14  51 S7        30.48F WCI  23
DES MOINES     PTSUNNY   30  14  51 S7        30.47F WCI  23
GRINNELL *     CLEAR     27  12  54 CALM      30.49F
KNOXVILLE *    SUNNY     30  12  47 SW3       30.47F
MARSHALLTOWN   SUNNY     26  10  50 CALM      30.47F
PELLA *        SUNNY     31  15  50 SW3       30.49F
PERRY *          N/A     31  19  60 S10       30.46F WCI  22
$$

IAZ004>006-015-016-023>025-035-036-302000-
   NORTH CENTRAL IOWA

CITY           SKY/WX    TMP DP  RH WIND       PRES   REMARKS
ALGONA *       SUNNY     27  19  74 S10       30.43F WCI  17
CLARION *      SUNNY     27  18  69 S7G13     30.46F WCI  19
ESTHERVILLE    SUNNY     26  17  68 S13       30.40F WCI  15
FORT DODGE *   SUNNY     28  18  64 SW7       30.45F WCI  21
MASON CITY     SUNNY     26  14  60 S10       30.46F WCI  16
WEBSTER CITY * SUNNY     28   9  43 VRB5G12   30.44F WCI  23
IOWA FALLS *   FAIR      27  15  61 S3        30.48F
$$

IAZ007>011-017>019-026>030-037>042-050>054-066-302000-
   NORTHEAST IOWA

CITY           SKY/WX    TMP DP  RH WIND       PRES   REMARKS
CEDAR RAPIDS   SUNNY     27  14  58 SW6       30.48F WCI  20
CHARLES CITY * SUNNY     23   7  50 CALM      30.47F
CLINTON *      SUNNY     25  12  58 S5        30.53F WCI  19
DECORAH *      SUNNY     21   5  49 NW5       30.45F WCI  15
DUBUQUE        SUNNY     22  10  60 SW3       30.48F
MONTICELLO *   SUNNY     27  12  54 CALM      30.50F
OELWEIN *      SUNNY     25   7  46 CALM      30.48F
WATERLOO       SUNNY     25   7  46 CALM      30.49F
$$

IAZ064-065-067-068-078-302000-
   EAST CENTRAL IOWA

CITY           SKY/WX    TMP DP  RH WIND       PRES   REMARKS
DAVENPORT      SUNNY     27  13  55 CALM      30.50F
IOWA CITY      SUNNY     27  15  61 SE3       30.52F
MT. PLEASANT * SUNNY     30  15  53 SW3       30.50F
MUSCATINE *    SUNNY     28  14  54 CALM      30.53F
QUAD CITIES    SUNNY     29  14  53 CALM      30.51F
$$

IAZ062-063-075>077-085>089-095>099-302000-
   SOUTHEAST IOWA

CITY           SKY/WX    TMP DP  RH WIND       PRES   REMARKS
BURLINGTON     SUNNY     30  16  56 S6        30.50F WCI  24
FAIRFIELD *    SUNNY     30  16  55 W7        30.50F WCI  23
FORT MADISON * SUNNY     30  18  59 CALM      30.51F
KEOKUK *       SUNNY     32  16  51 CALM      30.50F
OTTUMWA        SUNNY     29  12  49 W3        30.50F
WASHINGTON *   SUNNY     28  18  64 CALM      30.50F
$$

ABBREVIATIONS USED IN REMARKS
   TC - TEMPERATURES IN CELSIUS
  WCI - WIND CHILL INDEX
   HX - HEAT INDEX
  VSB - VISIBILITY
$$


USA.gov is the U.S. government's official web portal to all federal, state and local government web resources and services.